Kuchera_Ratio
0.7 9.9 12.7 11.9 7.4 6.1 7.5 12.0 12.8 6.8 0.0 2.6 3.9 3.0 0.0 0.0 0.0 0.0 0.0 0.0 0.0 0.0 0.0 0.0 0.0 0.0 0.0 0.0 0.0 0.0 0.0 0.0 0.0 0.0 0.0 0.0 0.0 0.0 0.0 0.0 0.0 0.0 0.0 0.0
8.1 11.9 5.1 1.6 3.0 5.9 7.9 10.1 10.0 4.7 0.0 1.3 3.8 4.3 0.0 0.0 0.0 0.0 0.0 0.0 0.0 0.0 0.0 0.0 0.0 0.0 0.0 0.0 0.0 0.0 0.0 0.0 0.0 0.0 0.0 0.0 0.0 0.0 0.0 0.0 0.0 0.0 0.0 0.0
7.5 5.6 0.0 0.9 3.7 7.1 6.7 10.1 10.1 12.0 2.8 0.9 4.1 9.6 3.6 0.0 0.0 0.0 0.0 0.0 0.0 0.0 0.0 0.0 0.0 0.0 0.0 0.0 0.0 0.0 0.0 0.0 0.0 0.0 0.0 0.0 0.0 0.0 0.0 0.0 0.0 0.0 0.0 0.0
4.4 0.0 2.1 3.2 4.4 2.3 11.0 0.9 3.3 6.0 7.9 15.3 2.3 15.7 5.9 0.9 0.0 0.0 0.0 0.0 0.0 0.0 0.0 0.0 0.0 0.0 0.0 0.0 0.0 0.0 0.0 0.0 0.0 0.0 0.0 0.0 0.0 0.0 0.0 0.0 0.0 0.0 0.0 0.0
6.7 5.0 4.2 6.6 3.4 0.0 5.7 0.0 0.9 2.9 6.2 8.7 10.5 15.0 6.7 0.0 3.0 1.1 0.0 0.0 0.0 0.0 0.0 0.0 0.0 0.0 0.0 0.0 0.0 0.0 0.0 0.0 0.0 0.0 0.0 0.0 0.0 0.0 0.0 0.0 0.0 0.0 0.0 0.0
3.1 0.0 0.7 0.4 0.0 0.0 0.0 0.9 2.1 3.6 7.6 15.1 8.7 12.5 8.9 6.3 3.9 0.5 0.0 0.0 0.0 0.0 0.0 0.0 0.0 0.0 0.0 0.0 0.0 0.0 0.0 0.0 0.0 0.0 0.0 0.0 0.0 0.0 0.0 0.0 0.0 0.0 0.0 0.0
3.7 2.5 0.0 0.0 1.3 0.0 0.8 7.8 13.6 14.9 15.2 15.5 5.8 9.9 8.7 4.8 0.5 0.0 0.0 0.0 0.0 0.0 0.0 0.0 0.0 0.0 0.0 0.0 0.0 0.0 0.0 0.0 0.0 0.0 0.0 0.0 0.0 0.0 0.0 0.0 0.0 0.0 0.0 0.0
9.7 12.2 1.9 0.0 0.0 6.1 5.5 6.8 12.0 15.3 15.3 12.7 4.4 12.5 9.4 0.6 0.0 0.0 0.0 0.0 0.0 0.0 0.0 0.0 0.0 0.0 0.0 0.0 0.0 0.0 0.0 0.0 0.0 0.0 0.0 0.0 0.0 0.0 0.0 0.0 0.0 0.0 0.0 0.0
8.9 9.1 0.0 0.0 0.0 0.0 0.7 6.2 1.7 8.4 6.6 12.9 9.8 6.8 2.8 0.0 0.0 0.0 0.0 0.0 0.0 0.0 0.0 0.0 0.0 0.0 0.0 0.0 0.0 0.0 0.0 0.0 0.0 0.0 0.0 0.0 0.0 0.0 0.0 0.0 0.0 0.0 0.0 0.0
0.0 9.6 0.0 0.0 0.0 0.0 0.0 0.0 8.6 9.9 13.8 16.2 12.4 11.7 12.0 7.5 5.6 0.0 0.0 0.0 0.0 0.0 0.0 0.0 0.0 0.0 0.0 0.0 0.0 0.0 0.0 0.0 0.0 0.0 0.0 0.0 0.0 0.0 0.0 0.0 0.0 0.0 0.0 0.0
0.0 3.3 1.6 0.0 1.7 3.1 1.9 3.5 1.7 2.0 6.8 14.1 14.7 12.3 5.3 6.7 3.2 0.4 0.0 0.0 0.0 0.0 0.0 0.0 0.0 0.0 0.0 0.0 0.0 0.0 0.0 0.0 0.0 0.0 0.0 0.0 0.0 0.0 0.0 0.0 0.0 0.0 0.0 0.0
0.0 4.6 9.8 1.2 0.0 0.0 0.0 2.8 3.1 8.5 10.9 10.0 11.3 12.0 0.0 0.0 0.0 0.0 0.0 0.0 0.0 0.0 0.0 0.0 0.0 0.0 0.0 0.0 0.0 0.0 0.0 0.0 0.0 0.0 0.0 0.0 0.0 0.0 0.0 0.0 0.0 0.0 0.0 0.0
0.0 5.1 9.5 6.1 1.9 0.0 2.8 0.0 0.0 2.9 4.8 12.8 12.9 12.1 0.0 0.0 0.0 0.0 0.0 0.0 0.0 0.0 0.0 0.0 0.0 0.0 0.0 0.0 0.0 0.0 0.0 0.0 0.0 0.0 0.0 0.0 0.0 0.0 0.0 0.0 0.0 0.0 0.0 0.0
0.0 4.7 8.1 12.0 6.7 5.3 4.6 2.3 2.9 3.0 7.0 12.3 12.2 9.0 1.2 0.0 0.0 0.0 0.0 0.0 0.0 0.0 0.0 0.0 0.0 0.0 0.0 0.0 0.0 0.0 0.0 0.0 0.0 0.0 0.0 0.0 0.0 0.0 0.0 0.0 0.0 0.0 0.0 0.0
0.0 3.8 4.6 3.8 2.4 4.0 4.2 5.0 1.9 3.2 4.9 7.5 8.1 7.1 2.6 0.0 0.1 0.0 0.0 0.0 0.0 0.0 0.0 0.0 0.0 0.0 0.0 0.0 0.0 0.0 0.0 0.0 0.0 0.0 0.0 0.0 0.0 0.0 0.0 0.0 0.0 0.0 0.0 0.0
0.0 3.4 4.5 3.6 1.8 3.0 3.3 3.7 2.7 3.8 4.2 5.3 6.5 5.9 0.0 0.0 0.0 0.0 0.0 0.0 0.0 0.0 0.0 0.0 0.0 0.0 0.0 0.0 0.0 0.0 0.0 0.0 0.0 0.0 0.0 0.0 0.0 0.0 0.0 0.0 0.0 0.0 0.0 0.0
0.0 3.6 4.9 9.4 4.3 4.1 8.7 2.1 3.6 3.7 0.0 2.0 4.7 0.0 0.0 0.0 0.0 0.0 0.0 0.0 0.0 0.0 0.0 0.0 0.0 0.0 0.0 0.0 0.0 0.0 0.0 0.0 0.0 0.0 0.0 0.0 0.0 0.0 0.0 0.0 0.0 0.0 0.0 0.0
0.0 3.7 4.9 9.4 7.3 12.4 2.8 0.0 0.0 0.0 0.0 0.0 0.0 0.0 0.0 0.0 0.0 0.0 0.0 0.0 0.0 0.0 0.0 0.0 0.0 0.0 0.0 0.0 0.0 0.0 0.0 0.0 0.0 0.0 0.0 0.0 0.0 0.0 0.0 0.0 0.0 0.0 0.0 0.0
0.0 2.1 6.3 9.9 9.8 6.2 3.2 0.0 0.0 2.2 0.3 0.0 0.0 0.0 0.0 0.0 0.0 0.0 0.0 0.0 0.0 0.0 0.0 0.0 0.0 0.0 0.0 0.0 0.0 0.0 0.0 0.0 0.0 0.0 0.0 0.0 0.0 0.0 0.0 0.0 0.0 0.0 0.0 0.0
0.0 0.0 4.3 10.5 10.6 10.8 0.2 0.0 0.0 0.0 4.4 0.0 0.0 0.0 0.0 0.0 1.4 0.0 0.0 0.0 0.0 0.0 0.0 0.0 0.0 0.0 0.0 0.0 0.0 0.0 0.0 0.0 0.0 0.0 0.8 0.0 0.0 0.0 0.0 0.0 0.0 0.0 0.0 0.0
4.7 5.6 9.4 9.3 8.9 5.3 0.0 0.0 0.0 8.4 0.0 0.0 0.0 0.0 0.0 0.0 0.0 0.0 0.0 0.0 0.0 0.0 0.0 0.0 0.0 0.0 0.0 0.0 0.5 0.6 1.4 2.3 0.6 0.0 0.1 0.2 0.0 0.0 0.0 0.6 0.3 0.5 0.0 0.0
3.8 8.6 9.1 9.9 12.1 8.9 0.0 0.0 3.1 0.0 0.0 0.0 0.0 0.0 0.0 0.0 0.0 0.0 0.0 0.0 0.0 0.0 0.0 0.0 0.0 0.6 0.4 0.0 1.9 2.6 4.1 0.9 0.0 0.0 0.4 0.8 0.0 0.0 0.3 1.8 1.9 1.2 0.0 0.0
5.3 1.5 2.3 3.1 0.5 0.0 0.0 0.0 0.0 0.0 0.0 0.0 0.0 0.0 0.0 0.0 0.0 0.0 0.0 0.0 0.0 0.0 0.1 0.2 1.4 2.5 3.0 2.4 3.4 1.9 1.2 0.0 0.0 0.4 2.0 1.5 0.7 1.3 1.4 2.6 2.6 3.0 1.7 1.0
0.0 0.0 0.0 0.0 0.0 0.0 0.0 0.0 0.0 0.0 0.0 0.0 0.0 0.0 0.0 0.0 0.0 0.0 0.0 0.0 0.0 0.0 0.3 0.3 2.4 4.8 5.4 4.2 4.4 3.9 4.5 3.1 3.5 2.8 3.1 3.4 4.5 4.2 2.8 2.2 2.3 3.2 3.4 3.2
0.0 0.0 0.0 0.1 0.0 0.0 0.0 0.0 0.0 0.0 0.0 0.0 0.0 0.0 0.0 0.0 0.0 0.3 1.1 1.3 1.7 2.4 2.5 3.0 4.5 5.7 5.8 5.1 5.3 4.8 5.3 6.4 6.3 4.7 5.4 5.9 5.5 6.0 5.8 3.9 3.5 3.5 1.6 1.5
0.0 0.0 1.4 2.0 0.0 0.0 0.0 0.0 0.0 0.0 0.0 0.0 0.0 0.0 0.0 0.0 0.0 0.0 0.5 0.8 2.1 2.9 3.0 4.4 5.1 5.8 6.2 6.4 6.2 5.4 6.8 8.5 5.0 6.9 7.1 7.1 6.3 6.3 6.2 6.6 5.9 0.0 0.0 0.0